User: anonymous   Login
Location: Brede
(50.9167°N, 0.6000°E)
Time: 07:35:21
(UTC+00:00)
Language:

NOSS 2-3 (D) - Orbit

View from above orbital plane
View from above orbital plane
View from above satellite
View from above satellite

Ground track
Ground track

The orbit data is extracted from the following two-line orbital elements,

1 23862U 96029D   20283.78802486 0.00000100  00000-0  38917-4 0    01
2 23862  63.3624 178.6772 0711322  23.3773 336.6227 13.40895858    06
Epoch (UTC): 09 October 2020 18:54:45
Eccentricity: 0.0711322
inclination: 63.3624°
perigee height: 573 km
apogee height: 1638 km
right ascension of ascending node: 178.6772°
argument of perigee: 23.3773°
revolutions per day: 13.40895858
mean anomaly at epoch: 336.6227°
orbit number at epoch: 0

The dashed part of the orbit path shows where the satellite is in the earth's shadow,  

DLR